Location: Paris
(18.5000°N, 73.9167°W)
Time: 14:05:39
(UTC+00:00)

Cosmos 1892 - Visible Passes

Search period start: 12 July 2024 00:00
Search period end: 22 July 2024 00:00
Orbit: 454 x 465 km, 82.5° (Epoch: 11 July)

Date Brightness Start Highest point End Pass type
(mag) Time Alt. Az. Time Alt. Az. Time Alt. Az.
12 Jul 2.5 01:18:00 74° W 01:18:03 74° W 01:21:34 10° N visible
13 Jul 2.9 00:44:41 32° SE 00:45:36 39° E 00:48:54 10° NNE visible
14 Jul 4.2 00:11:09 11° SE 00:13:11 16° E 00:15:23 10° NE visible
14 Jul 5.5 01:45:51 10° WSW 01:47:31 13° W 01:49:11 10° NW visible
15 Jul 4.3 01:11:46 10° SSW 01:14:54 31° W 01:18:04 10° NNW visible
16 Jul 2.4 00:38:50 10° S 00:42:20 87° W 00:45:52 10° N visible
17 Jul 3.2 00:06:37 10° SSE 00:09:47 33° E 00:12:59 10° NNE visible
18 Jul 5.6 01:09:28 10° WSW 01:11:33 15° W 01:13:38 10° NW visible
19 Jul 4.1 00:35:35 10° SSW 00:38:50 36° W 00:42:07 10° NNW visible
20 Jul 2.4 00:02:40 10° S 00:06:10 79° E 00:09:41 10° N visible
